• In Denmark
  • List of Countries
  • For 7 days
  • Water Temperature
  • Satellite Maps
  • Weather Map
  • Weather Widgets
  • user-avatar
    Login

    Hourly Weather Holguin

    Today, 16 December, Saturday

    Time Temperature Precipitation Wind Pressure Humidity
    00:00 +25°C° 0 mm 2 mps 751 mmHg 89%
    01:00 +24°C° 0 mm 2 mps 750 mmHg 90%
    02:00 +24°C° 0 mm 2 mps 750 mmHg 91%
    03:00 +24°C° 0 mm 2 mps 750 mmHg 91%
    04:00 +23°C° 0 mm 2 mps 750 mmHg 92%
    05:00 +23°C° 0 mm 2 mps 750 mmHg 92%
    06:00 +23°C° 0 mm 2 mps 750 mmHg 93%
    07:00 +23°C° 0 mm 2 mps 750 mmHg 93%
    08:00 +25°C° 0 mm 3 mps 751 mmHg 86%
    09:00 +27°C° 0 mm 4 mps 751 mmHg 79%
    10:00 +29°C° 0 mm 5 mps 752 mmHg 73%
    11:00 +30°C° 0 mm 5 mps 751 mmHg 70%
    12:00 +32°C° 0 mm 6 mps 751 mmHg 67%
    13:00 +32°C° 0 mm 6 mps 750 mmHg 64%
    14:00 +32°C° 0 mm 6 mps 750 mmHg 67%
    15:00 +30°C° 0 mm 6 mps 750 mmHg 69%
    16:00 +29°C° 0 mm 6 mps 749 mmHg 72%
    17:00 +28°C° 0 mm 6 mps 750 mmHg 76%
    18:00 +27°C° 0 mm 5 mps 750 mmHg 81%
    19:00 +26°C° 0 mm 5 mps 750 mmHg 86%
    20:00 +26°C° 0 mm 5 mps 751 mmHg 87%
    21:00 +26°C° 0 mm 5 mps 751 mmHg 88%
    22:00 +25°C° 0 mm 5 mps 751 mmHg 89%
    23:00 +25°C° 0 mm 5 mps 751 mmHg 89%

    Tomorrow, 17 December, Sunday

    Time Temperature Precipitation Wind Pressure Humidity
    00:00 +25°C° 0 mm 5 mps 751 mmHg 89%
    01:00 +25°C° 0 mm 5 mps 751 mmHg 90%
    02:00 +25°C° 0 mm 5 mps 751 mmHg 89%
    03:00 +23°C° 0 mm 5 mps 750 mmHg 89%
    04:00 +23°C° 0 mm 5 mps 750 mmHg 89%
    05:00 +23°C° 0 mm 5 mps 750 mmHg 89%
    06:00 +23°C° 0 mm 5 mps 751 mmHg 89%
    07:00 +23°C° 0 mm 5 mps 751 mmHg 89%
    08:00 +26°C° 0 mm 5 mps 752 mmHg 82%
    09:00 +27°C° 0 mm 6 mps 752 mmHg 76%
    10:00 +29°C° 0 mm 7 mps 753 mmHg 70%
    11:00 +29°C° 0 mm 7 mps 752 mmHg 67%
    12:00 +30°C° 0 mm 7 mps 752 mmHg 65%
    13:00 +32°C° 0 mm 7 mps 751 mmHg 63%
    14:00 +30°C° 0 mm 7 mps 751 mmHg 65%
    15:00 +30°C° 0 mm 7 mps 750 mmHg 67%
    16:00 +29°C° 0 mm 7 mps 750 mmHg 69%
    17:00 +28°C° 0 mm 6 mps 750 mmHg 73%
    18:00 +27°C° 0 mm 6 mps 751 mmHg 78%
    19:00 +26°C° 0 mm 5 mps 751 mmHg 83%
    20:00 +25°C° 0 mm 5 mps 751 mmHg 84%
    21:00 +25°C° 0 mm 5 mps 752 mmHg 86%
    22:00 +25°C° 0 mm 5 mps 752 mmHg 88%
    23:00 +25°C° 0 mm 4 mps 752 mmHg 88%

    Day after tomorrow, 18 December, Monday

    Time Temperature Precipitation Wind Pressure Humidity
    00:00 +25°C° 0 mm 4 mps 751 mmHg 89%
    01:00 +25°C° 0 mm 4 mps 751 mmHg 89%
    02:00 +25°C° 0 mm 4 mps 751 mmHg 89%
    03:00 +25°C° 0 mm 4 mps 751 mmHg 89%
    04:00 +23°C° 0 mm 4 mps 750 mmHg 89%
    05:00 +25°C° 0 mm 5 mps 751 mmHg 89%
    06:00 +25°C° 0 mm 5 mps 751 mmHg 88%
    07:00 +25°C° 0 mm 5 mps 751 mmHg 88%
    08:00 +26°C° 0 mm 6 mps 752 mmHg 82%
    09:00 +28°C° 0 mm 7 mps 752 mmHg 76%
    10:00 +29°C° 0 mm 8 mps 753 mmHg 70%
    11:00 +29°C° 0 mm 8 mps 752 mmHg 68%
    12:00 +31°C° 0 mm 8 mps 752 mmHg 66%
    13:00 +31°C° 0 mm 8 mps 751 mmHg 64%
    14:00 +30°C° 0 mm 7 mps 751 mmHg 66%
    15:00 +29°C° 0 mm 7 mps 750 mmHg 68%
    16:00 +29°C° 0 mm 7 mps 750 mmHg 70%
    17:00 +28°C° 0 mm 6 mps 750 mmHg 75%
    18:00 +26°C° 0 mm 5 mps 750 mmHg 80%
    19:00 +25°C° 0 mm 5 mps 751 mmHg 85%
    20:00 +25°C° 0 mm 5 mps 751 mmHg 86%
    21:00 +25°C° 0 mm 5 mps 751 mmHg 87%
    22:00 +25°C° 0 mm 5 mps 752 mmHg 89%
    23:00 +25°C° 0 mm 4 mps 751 mmHg 89%

    19 December, Tuesday

    Time Temperature Precipitation Wind Pressure Humidity
    00:00 +25°C° 0 mm 4 mps 751 mmHg 90%
    01:00 +25°C° 0 mm 4 mps 751 mmHg 90%
    02:00 +25°C° 0 mm 4 mps 751 mmHg 91%
    03:00 +23°C° 0 mm 4 mps 750 mmHg 91%
    04:00 +23°C° 0 mm 4 mps 750 mmHg 91%
    05:00 +23°C° 0 mm 4 mps 750 mmHg 92%
    06:00 +23°C° 0 mm 4 mps 751 mmHg 92%
    07:00 +23°C° 0 mm 4 mps 751 mmHg 92%
    08:00 +26°C° 0 mm 5 mps 751 mmHg 85%
    09:00 +27°C° 0 mm 5 mps 752 mmHg 78%
    10:00 +29°C° 0 mm 6 mps 752 mmHg 71%
    11:00 +29°C° 0 mm 6 mps 751 mmHg 68%
    12:00 +30°C° 0 mm 6 mps 751 mmHg 65%
    13:00 +30°C° 0 mm 6 mps 750 mmHg 63%
    14:00 +30°C° 0 mm 6 mps 750 mmHg 65%
    15:00 +29°C° 0 mm 6 mps 749 mmHg 67%
    16:00 +29°C° 0 mm 6 mps 749 mmHg 69%
    17:00 +28°C° 0 mm 5 mps 749 mmHg 74%
    18:00 +26°C° 0 mm 5 mps 749 mmHg 79%
    19:00 +25°C° 0 mm 4 mps 750 mmHg 85%
    20:00 +25°C° 0 mm 4 mps 750 mmHg 86%
    21:00 +25°C° 0 mm 4 mps 750 mmHg 88%
    22:00 +23°C° 0 mm 4 mps 750 mmHg 89%
    23:00 +24°C° 0 mm 3 mps 750 mmHg 90%

    20 December, Wednesday

    Time Temperature Precipitation Wind Pressure Humidity
    00:00 +24°C° 0 mm 3 mps 750 mmHg 91%
    01:00 +24°C° 0 mm 3 mps 750 mmHg 92%
    02:00 +22°C° 0 mm 3 mps 749 mmHg 92%
    03:00 +22°C° 0 mm 3 mps 749 mmHg 93%
    04:00 +22°C° 0 mm 3 mps 749 mmHg 93%
    05:00 +22°C° 0 mm 3 mps 749 mmHg 93%
    06:00 +23°C° 0 mm 2 mps 750 mmHg 93%
    07:00 +23°C° 0 mm 2 mps 750 mmHg 93%
    08:00 +25°C° 0 mm 3 mps 751 mmHg 86%
    09:00 +27°C° 0 mm 4 mps 751 mmHg 78%
    10:00 +29°C° 0 mm 5 mps 751 mmHg 71%
    11:00 +30°C° 0 mm 5 mps 750 mmHg 69%
    12:00 +32°C° 0 mm 5 mps 750 mmHg 66%
    13:00 +32°C° 0 mm 5 mps 749 mmHg 64%
    14:00 +32°C° 0 mm 5 mps 749 mmHg 66%
    15:00 +30°C° 0 mm 5 mps 748 mmHg 69%
    16:00 +30°C° 0 mm 5 mps 748 mmHg 71%
    17:00 +28°C° 0 mm 5 mps 749 mmHg 77%
    18:00 +27°C° 0 mm 5 mps 749 mmHg 83%
    19:00 +26°C° 0 mm 4 mps 749 mmHg 89%
    20:00 +25°C° 0 mm 4 mps 749 mmHg 90%
    21:00 +25°C° 0 mm 4 mps 750 mmHg 91%
    22:00 +25°C° 0 mm 4 mps 750 mmHg 93%
    23:00 +25°C° 0 mm 4 mps 750 mmHg 93%

    21 December, Thursday

    Time Temperature Precipitation Wind Pressure Humidity
    00:00 +23°C° 0 mm 4 mps 749 mmHg 94%
    01:00 +23°C° 0 mm 4 mps 749 mmHg 94%
    02:00 +24°C° 0 mm 3 mps 749 mmHg 94%
    03:00 +22°C° 0 mm 3 mps 749 mmHg 94%
    04:00 +22°C° 0 mm 3 mps 749 mmHg 94%
    05:00 +22°C° 0 mm 3 mps 749 mmHg 94%
    06:00 +22°C° 0 mm 3 mps 750 mmHg 93%
    07:00 +22°C° 0 mm 3 mps 750 mmHg 93%
    08:00 +25°C° 0 mm 4 mps 750 mmHg 84%
    09:00 +27°C° 0 mm 5 mps 751 mmHg 75%
    10:00 +28°C° 0 mm 5 mps 751 mmHg 67%
    11:00 +29°C° 0 mm 6 mps 750 mmHg 63%
    12:00 +30°C° 0 mm 6 mps 750 mmHg 60%
    13:00 +32°C° 0 mm 6 mps 749 mmHg 56%
    14:00 +30°C° 0 mm 6 mps 749 mmHg 59%
    15:00 +30°C° 0 mm 6 mps 749 mmHg 62%
    16:00 +29°C° 0 mm 6 mps 749 mmHg 65%
    17:00 +28°C° 0 mm 5 mps 749 mmHg 71%
    18:00 +26°C° 0 mm 5 mps 750 mmHg 77%
    19:00 +25°C° 0 mm 5 mps 750 mmHg 84%
    20:00 +25°C° 0 mm 4 mps 751 mmHg 85%
    21:00 +25°C° 0 mm 4 mps 751 mmHg 87%
    22:00 +23°C° 0 mm 4 mps 751 mmHg 89%
    23:00 +23°C° 0.1 mm 4 mps 751 mmHg 89%
    Show more